Orbital Elements at Epoch 2459000.5 (2020-May-31.0) TDB
Reference: JPL 19 (heliocentric ecliptic J2000)
Element | Value | Uncertainty (1-sigma) | Units |
e | .06958008857854917 | 4.4307e-08 | |
a | 3.203410819193359 | 3.0127e-08 | au |
q | 2.980517210640403 | 1.3803e-07 | au |
i | 12.58807695117894 | 4.1571e-06 | deg |
node | 109.9882394223269 | 2.3277e-05 | deg |
peri | 118.2768094212216 | 3.9619e-05 | deg |
M | 127.8610766378858 | 3.3531e-05 | deg |
tp | 2458256.705024664687 (2018-May-18.20502466) | 0.00019266 | TDB |
period | 2094.196280538533 5.73 | 2.9543e-05 8.088e-08 | d yr |
n | .1719036574295817 | 2.4251e-09 | deg/d |
Q | 3.426304427746316 | 3.2223e-08 | au |
|
| | Orbit Determination Parameters
Additional Information
|